#timestamp,LO_Frequency,Hit,StdDev 
1589950815.5,286046999.8,N
1589950835.3,286047000.5,N
1589950855.2,286046999.2,N
1589950875.9,286046997.7,N
1589950895.7,286046998.0,N
1589950915.6,286046997.7,N
1589950935.4,286046999.2,N
1589950955.2,286046996.8,N
1589950975.1,286046999.2,N
1589950976.0,286046999.2,N
1589950995.8,286046999.0,N
1589951015.7,286047001.2,N
1589951035.5,286046998.2,N
1589951055.3,286046997.3,N
1589951075.2,286046997.1,N
1589951095.9,286046997.1,N
1589951115.7,286046997.2,N
1589951135.6,286046998.4,N
1589951155.4,286047000.7,N
1589951175.2,286046998.5,N
1589951195.1,286046999.0,N
1589951196.0,286046999.0,N
1589951215.8,286046998.3,N
1589951235.7,286046996.7,N
1589951255.5,286046999.3,N
1589951275.3,286046998.4,N
1589951295.2,286046999.3,N
1589951315.0,286046999.1,N
1589951315.9,286046999.1,N
1589951335.7,286046999.6,N
1589951355.6,286046999.0,N
1589951375.4,286046998.5,N
1589951395.3,286046998.6,N
1589951415.1,286047001.2,N
1589951416.0,286047001.2,N
1589951435.8,286046998.9,N
1589951455.7,286046998.6,N
1589951475.5,286046998.6,N
1589951495.3,286047001.2,N
1589951515.2,286046998.1,N
1589951535.0,286046998.8,N
1589951535.9,286046998.8,N
1589951555.8,286046998.7,N
1589951575.6,286046996.7,N
1589951595.4,286046998.6,N
1589951615.3,286046997.7,N
1589951635.1,286046997.7,N
1589951655.8,286046998.7,N
1589951675.7,286046997.7,N
1589951695.5,286046997.0,N
1589951715.4,286046999.1,N
1589951735.2,286046996.8,N
1589951755.0,286046996.9,N
1589951755.9,286046996.9,N
1589951775.8,286046996.9,N
1589951795.6,286046997.6,N
1589951815.5,286046995.2,Y
1589951835.3,286046998.9,P
1589951855.1,286046997.1,P
1589951875.9,286046999.0,N
1589951895.7,286046996.9,Y
1589951915.5,286047000.2,P
1589951935.4,286047000.7,N
1589951955.2,286047000.6,N
1589951975.1,286047002.4,N
1589951976.0,286047002.4,N
1589951995.8,286047004.0,N
1589952015.6,286047002.0,N
1589952035.5,286047004.4,N
1589952055.3,286047003.3,N
1589952075.1,286047007.6,Y
1589952095.9,286047005.9,P
1589952115.7,286047005.1,N
1589952135.6,286047004.9,N
1589952155.4,286047004.9,Y
1589952175.2,286047001.6,P
1589952195.1,286047003.1,N
1589952196.0,286047003.1,N
1589952215.8,286047003.0,N
1589952235.7,286047005.4,Y
1589952255.5,286047004.0,P
1589952275.3,286047002.6,P
1589952295.2,286046999.9,N
1589952315.0,286047002.2,N
1589952315.9,286047002.2,N
1589952335.8,286047001.7,N
1589952355.6,286046999.9,N
1589952375.4,286047002.8,N
1589952395.3,286047000.2,N
1589952415.1,286047000.0,N
1589952435.8,286047002.0,N
1589952455.7,286047003.6,N
1589952475.5,286047007.6,Y
1589952495.4,286047005.0,P
1589952515.2,286047007.1,P
1589952535.0,286047004.7,N
1589952535.9,286047004.7,N
1589952555.8,286047006.0,Y
1589952575.6,286047000.0,P
1589952595.5,286047002.8,N
1589952615.3,286047001.0,N
1589952635.1,286047002.7,N
1589952655.9,286046999.7,N
1589952675.7,286047000.4,N
1589952695.5,286047001.2,N
1589952715.4,286047001.0,N
1589952735.2,286047000.7,N
1589952755.0,286046999.3,N
1589952755.9,286046999.3,N
1589952775.8,286046998.5,N
1589952795.6,286047000.3,N
1589952815.5,286047000.2,N
1589952835.3,286047000.3,N
1589952855.1,286047002.8,N
1589952875.9,286047011.9,Y
1589952895.7,286047001.6,P
1589952915.5,286047004.4,P
1589952935.4,286047004.1,N
1589952955.2,286047001.9,N
1589952975.1,286047002.2,N
1589952976.0,286047002.2,N
1589952995.8,286047001.5,N
1589953015.6,286047004.0,Y
1589953035.5,286046999.9,P
1589953055.3,286046999.9,N
1589953075.1,286047000.1,N
1589953095.9,286047000.7,N
1589953115.7,286046998.5,N
1589953135.6,286046998.2,N
1589953155.4,286047000.3,N
1589953175.2,286047001.4,N
1589953195.1,286047003.7,Y
1589953196.0,286047003.7,P
1589953215.8,286047001.6,N
1589953235.7,286047002.2,N
1589953255.5,286047001.9,N
1589953275.3,286047002.1,N
1589953295.2,286047002.3,N
1589953315.0,286046999.8,N
1589953315.9,286046999.8,N
1589953335.7,286047000.4,N
1589953355.6,286046997.6,N
1589953375.4,286046995.0,Y
1589953395.3,286046993.9,P
1589953415.1,286046992.1,N
1589953416.0,286046992.1,N
1589953435.8,286046992.5,N
1589953455.7,286046993.2,N
1589953475.5,286046994.8,N
1589953495.3,286046993.1,N
1589953515.2,286046990.4,Y
1589953535.0,286046998.0,P
1589953535.9,286046998.0,N
1589953555.8,286046996.4,N
1589953575.6,286046996.2,N
1589953595.4,286046994.5,Y
1589953615.3,286046997.0,P
1589953635.1,286046999.6,N
1589953655.9,286046999.5,N
1589953675.7,286046999.2,N
1589953695.5,286046997.8,N
1589953715.4,286046997.5,N
1589953735.2,286046997.4,N
1589953755.0,286046998.9,N
1589953755.9,286046998.9,N
1589953775.8,286046996.9,N
1589953795.6,286046997.4,N
1589953815.5,286046999.3,N
1589953835.3,286046997.6,N
1589953855.1,286046996.9,Y
1589953875.9,286046998.5,P
1589953895.7,286046999.0,P
1589953915.5,286046999.1,N
1589953935.4,286046998.9,N
1589953955.2,286046999.4,N
1589953975.1,286046996.8,Y
1589953976.0,286046996.8,P
1589953995.8,286046999.5,N
1589954015.6,286046999.1,N
1589954035.5,286046999.2,N
1589954055.3,286046998.7,N
1589954075.1,286046998.2,N
1589954095.9,286046996.6,Y
1589954115.7,286046996.9,P
1589954135.6,286046998.4,N
1589954155.4,286046996.6,P
1589954175.2,286046995.1,Y
1589954195.1,286046996.9,P
1589954196.0,286046996.9,P
1589954215.8,286046996.8,P
1589954235.6,286046998.8,Y
1589954255.5,286047001.7,P
1589954275.3,286047004.2,N
1589954295.2,286047002.0,N
1589954315.9,286047002.4,N
1589954335.7,286047001.1,N
1589954355.6,286047000.0,N
1589954375.4,286047002.3,N
1589954395.2,286047004.2,N
